User: anonymous   Login
Location: Unspecified
(0.0000°N, 0.0000°E)
Time: 06:50:49
(UTC+00:00)
Language:

TBA - TO BE ASSIGNED - Orbit

View from above orbital plane
View from above orbital plane
View from above satellite
View from above satellite

Ground track
Ground track

The orbit is defined by the following mean orbital elements,

1 68808U          26145.56189074 +.00000000 +00000-0 +13796-2 0 00009
2 68808  97.2849 352.2238 0001926  87.0509 273.0977 15.75266644    04
Epoch (UTC): 25 May 2026 13:29:07
Eccentricity: 0.0001926
inclination: 97.2849°
perigee height: 343 km
apogee height: 345 km
right ascension of ascending node: 352.2238°
argument of perigee: 87.0509°
revolutions per day: 15.75266644
mean anomaly at epoch: 273.0977°

The dashed part of the orbit path shows where the satellite is in the earth's shadow,  

DLR